Weather History for KMLT - July, 2013

Change the Weather History Date:

Thursday, July 11, 2013

  Actual Average Record
Temperature  
Mean Temperature 73 °F 68 °F  
Max Temperature 82 °F 78 °F 97 °F (1911)
Min Temperature 63 °F 58 °F 42 °F (1915)
Degree Days  
Heating Degree Days 0 1  
Month to date heating degree days 3 11  
Since 1 June heating degree days 104 127  
Since 1 July heating degree days 3 11  
Cooling Degree Days 8 4  
Month to date cooling degree days 92 41  
Year to date cooling degree days 161 96  
Since 1 June cooling degree days 153 90  
Growing Degree Days 23 (Base 50)    
Moisture  
Dew Point 63 °F    
Average Humidity 70    
Maximum Humidity 100    
Minimum Humidity 39    
Precipitation  
Precipitation T in 0.14 in 0.98 in (1949)
Month to date precipitation 0.29 1.49  
Year to date precipitation 17.16 20.63  
Sea Level Pressure  
Sea Level Pressure 29.82 in    
Wind  
Wind Speed 3 mph (West)    
Max Wind Speed 12 mph    
Max Gust Speed 17 mph    
Visibility 8 miles    
Events Rain , Thunderstorm    
T = Trace of Precipitation, MM = Missing Value Source: NWS Daily Summary

Daily Weather History Graph

Daily Weather History Graph

Search for Another Location

Airport or City:

Trip Planner

Search our weather history database for the weather conditions in past years. The results will help you decide how hot, cold, wet, or windy it might be!

Date:

Astronomy

Jul. 11, 2013 Rise Set
Actual Time 4:56 AM EDT 8:23 PM EDT
Civil Twilight 4:19 AM EDT 9:00 PM EDT
Nautical Twilight 3:30 AM EDT 9:48 PM EDT
Astronomical Twilight 2:27 AM EDT 10:51 PM EDT
Moon 8:24 AM EDT (7/11) 9:48 PM EDT (7/11)
Length of Visible Light 16h 40m
Length of Day
15h 26m
Waxing Crescent, 10% of the Moon is Illuminated
Jul 11
Waxing Crescent
Jul 15
First Quarter
Jul 22
Full
Jul 29
Last Quarter
Aug 6
New

Hourly Weather History & Observations

Time (EDT) Temp. Heat Index Dew Point Humidity Pressure Visibility Wind Dir Wind Speed Gust Speed Precip Events Conditions
12:23 AM 66.2 °F - 64.4 °F 94% 29.78 in 7.0 mi South 4.6 mph - 0.00 in Rain , Thunderstorm Light Thunderstorms and Rain
12:35 AM 66.2 °F - 64.4 °F 94% 29.78 in 9.0 mi Calm Calm - 0.01 in   Overcast
12:53 AM 66.9 °F - 64.0 °F 90% 29.78 in 9.0 mi Calm Calm - 0.01 in   Overcast
1:27 AM 66.2 °F - 64.4 °F 94% 29.76 in 4.0 mi Calm Calm - N/A   Overcast
1:45 AM 64.4 °F - 64.4 °F 100% 29.75 in 2.5 mi Calm Calm - N/A   Overcast
1:53 AM 64.9 °F - 64.0 °F 97% 29.76 in 2.0 mi Calm Calm - N/A   Overcast
2:38 AM 66.2 °F - 64.4 °F 94% 29.75 in 3.0 mi Calm Calm - N/A   Overcast
2:53 AM 66.0 °F - 64.0 °F 93% 29.75 in 2.5 mi SSE 3.5 mph - N/A   Overcast
3:36 AM 66.2 °F - 64.4 °F 94% 29.74 in 3.0 mi Variable 3.5 mph - N/A   Overcast
3:53 AM 66.0 °F - 64.9 °F 96% 29.75 in 5.0 mi Calm Calm - N/A   Overcast
4:53 AM 66.0 °F - 64.9 °F 96% 29.77 in 10.0 mi Calm Calm - N/A   Overcast
5:53 AM 66.9 °F - 64.9 °F 93% 29.79 in 10.0 mi Calm Calm - N/A   Overcast
6:53 AM 66.9 °F - 64.9 °F 93% 29.79 in 10.0 mi Variable 3.5 mph - N/A   Overcast
7:53 AM 68.0 °F - 66.0 °F 93% 29.80 in 10.0 mi Calm Calm - N/A   Overcast
8:31 AM 69.8 °F - 66.2 °F 88% 29.79 in 10.0 mi WSW 4.6 mph - N/A   Overcast
8:53 AM 70.0 °F - 66.0 °F 87% 29.79 in 10.0 mi Calm Calm - N/A   Mostly Cloudy
9:08 AM 71.6 °F - 66.2 °F 83% 29.75 in 10.0 mi Calm Calm - N/A   Scattered Clouds
9:53 AM 75.0 °F - 66.9 °F 76% 29.80 in 10.0 mi Variable 4.6 mph - N/A   Clear
10:53 AM 75.0 °F - 66.9 °F 76% 29.81 in 10.0 mi Variable 3.5 mph - N/A   Overcast
11:53 AM 75.9 °F - 66.0 °F 71% 29.81 in 10.0 mi Variable 5.8 mph - 0.00 in Rain Light Rain
12:53 PM 75.9 °F - 64.0 °F 67% 29.82 in 10.0 mi Variable 4.6 mph - 0.00 in   Mostly Cloudy
1:53 PM 77.0 °F - 66.9 °F 71% 29.82 in 10.0 mi Variable 3.5 mph - N/A   Partly Cloudy
2:53 PM 79.0 °F - 64.0 °F 60% 29.83 in 10.0 mi Calm Calm - N/A   Scattered Clouds
3:53 PM 82.0 °F 83.0 °F 62.1 °F 51% 29.82 in 10.0 mi West 3.5 mph - N/A   Mostly Cloudy
4:53 PM 80.1 °F 81.5 °F 63.0 °F 56% 29.83 in 10.0 mi Calm Calm - N/A   Overcast
5:53 PM 81.0 °F 80.8 °F 55.9 °F 42% 29.85 in 10.0 mi WNW 5.8 mph - N/A   Partly Cloudy
6:53 PM 80.1 °F 80.0 °F 54.0 °F 40% 29.87 in 10.0 mi WNW 8.1 mph - N/A   Partly Cloudy
7:53 PM 77.0 °F - 54.0 °F 45% 29.90 in 10.0 mi NW 6.9 mph - N/A   Partly Cloudy
8:53 PM 72.0 °F - 55.0 °F 55% 29.94 in 10.0 mi Calm Calm - N/A   Clear
9:53 PM 68.0 °F - 55.0 °F 63% 29.96 in 10.0 mi Calm Calm - N/A   Clear
10:53 PM 64.9 °F - 55.9 °F 73% 29.99 in 10.0 mi NW 3.5 mph - N/A   Clear
11:53 PM 64.9 °F - 53.1 °F 65% 30.01 in 10.0 mi NE 4.6 mph - N/A   Clear